Regional Weather Roundup
Issued by NWS Sioux Falls, SD

Home | Current Version | Previous Version | Graphics & Text | Print | Product List | Glossary Off
Versions: 1 2 3 4 5 6 7 8 9 10 11 12 13 14 15 16 17 18 19 20 21 22 23 24 25 26 27 28 29 30 31 32 33 34 35 36 37 38 39 40 41 42 43 44 45 46 47 48 49 50

951
ASUS43 KFSD 181910
RWRFSD

WEATHER ROUNDUP FOR SE SOUTH DAKOTA/SW MINNESOTA/NW IOWA
NATIONAL WEATHER SERVICE SIOUX FALLS SD
200 PM CDT FRI AUG 18 2017

NOTE: "FAIR" INDICATES FEW OR NO CLOUDS BELOW 12,000 FEET WITH NO
SIGNIFICANT WEATHER AND OR OBSTRUCTIONS TO VISIBILITY.


SDZ038>040-050-052>070-182000-
SOUTHEAST SOUTH DAKOTA

CITY           SKY/WX    TMP DP  RH WIND       PRES   REMARKS
BROOKINGS      MOSUNNY   76  62  62 S13       29.91S
CHAMBERLAIN    SUNNY     81  61  50 NW12      29.94F
HURON          SUNNY     79  62  56 NW14G20   29.90S
MADISON        FAIR      75  66  73 SW13      29.92S
MITCHELL       MOSUNNY   79  65  62 VRB6      29.90F
SIOUX FALLS    MOSUNNY   78  65  63 S12       29.90F
WINNER         FAIR      83  58  42 N13       29.96F
$$

MNZ071-072-080-081-089-090-097-098-182000-
SOUTHWEST MINNESOTA

CITY           SKY/WX    TMP DP  RH WIND       PRES   REMARKS
FAIRMONT       MOSUNNY   72  61  68 CALM      29.94F
JACKSON        SUNNY     72  61  68 CALM      29.94S
LUVERNE        SUNNY     75  55  50 S8        29.92S
MARSHALL       PTSUNNY   79  60  52 S7        29.90S
MONTEVIDEO     CLOUDY    75  70  83 E3        29.90F
PIPESTONE      MOSUNNY   75  61  60 SW9       29.92S
REDWOOD FALLS  PTSUNNY   73  59  61 S3        29.91F
TRACY          SUNNY     76  64  65 S7        29.91F
WINDOM         SUNNY     75  59  57 SE3       29.92F
WORTHINGTON    SUNNY     75  60  59 SW6       29.93F
$$

IAZ001>003-012>014-020>022-031-032-NEZ013-014-SDZ071-182000-
NORTHWEST IOWA

CITY           SKY/WX    TMP DP  RH WIND       PRES   REMARKS
CHEROKEE       MOSUNNY   78  63  58 E5        29.92S
DENISON        SUNNY     79  66  65 VRB3      29.93F
ESTHERVILLE    MOSUNNY   74  62  66 NW5       29.92F
LE MARS        MOSUNNY   79  63  57 VRB5      29.91F
ORANGE CITY    SUNNY     79  64  61 S5        29.93S
SHELDON        SUNNY     75  63  64 VRB6G12   29.91F
SIOUX CITY     SUNNY     81  66  60 SW6       29.90F
SPENCER        MOSUNNY   77  60  55 E5        29.93S
STORM LAKE       N/A     75  63  64 SE6       29.93F
$$

ABBREVIATIONS USED IN REMARKS
   TC - TEMPERATURE IN CELSIUS
  WCI - WIND CHILL INDEX
   HX - HEAT INDEX
  VSB - VISIBILITY





USA.gov is the U.S. government's official web portal to all federal, state and local government web resources and services.